Time,TemperatureF,DewpointF,PressureIn,WindDirection,WindDirectionDegrees,WindSpeedMPH,WindSpeedGustMPH,Humidity,HourlyPrecipIn,Conditions,Clouds,dailyrainin,SoftwareType,DateUTC
2013-11-21 00:22:00,65.0,-99.9,29.85,SSE,152,4.0,5.0,-999,0.00,,,0.00,,2013-11-21 06:22:00,
2013-11-21 00:52:00,65.0,-99.9,29.85,SSE,152,5.0,5.0,-999,0.00,,,0.00,,2013-11-21 06:52:00,
2013-11-21 01:22:00,64.0,-99.9,29.85,East,84,4.0,4.0,-999,0.00,,,0.00,,2013-11-21 07:22:00,
2013-11-21 01:52:00,64.0,-99.9,29.85,ESE,110,3.0,4.0,-999,0.00,,,0.00,,2013-11-21 07:52:00,
2013-11-21 02:22:00,64.0,-99.9,29.85,ENE,69,3.0,3.0,-999,0.00,,,0.00,,2013-11-21 08:22:00,
2013-11-21 02:52:00,64.0,-99.9,29.85,East,90,4.0,5.0,-999,0.00,,,0.00,,2013-11-21 08:52:00,
2013-11-21 03:22:00,65.0,-99.9,29.85,SE,146,4.0,5.0,-999,0.00,,,0.00,,2013-11-21 09:22:00,
2013-11-21 03:43:00,66.0,-99.9,29.85,SSE,153,6.0,6.0,-999,0.00,,,0.00,,2013-11-21 09:43:00,
2013-11-21 03:54:00,66.0,-99.9,29.84,SE,142,6.0,7.0,-999,0.00,,,0.00,,2013-11-21 09:54:00,
2013-11-21 04:23:00,66.0,-99.9,29.85,SE,146,4.0,4.0,-999,0.00,,,0.00,,2013-11-21 10:23:00,
2013-11-21 04:53:00,66.0,-99.9,29.84,SE,129,4.0,4.0,-999,0.00,,,0.00,,2013-11-21 10:53:00,
2013-11-21 05:22:00,66.0,-99.9,29.84,SSE,149,3.0,3.0,-999,0.00,,,0.00,,2013-11-21 11:22:00,
2013-11-21 05:43:00,65.0,-99.9,29.84,SE,141,2.0,2.0,-999,0.00,,,0.00,,2013-11-21 11:43:00,
2013-11-21 05:53:00,64.0,-99.9,29.84,SE,138,2.0,2.0,-999,0.00,,,0.00,,2013-11-21 11:53:00,
2013-11-21 06:22:00,63.0,-99.9,29.85,SE,134,3.0,3.0,-999,0.00,,,0.00,,2013-11-21 12:22:00,
2013-11-21 06:52:00,63.0,-99.9,29.86,ESE,114,2.0,2.0,-999,0.00,,,0.00,,2013-11-21 12:52:00,
2013-11-21 07:22:00,62.0,-99.9,29.87,ESE,110,3.0,3.0,-999,0.00,,,0.00,,2013-11-21 13:22:00,
2013-11-21 07:52:00,63.0,-99.9,29.88,SE,127,2.0,2.0,-999,0.00,,,0.00,,2013-11-21 13:52:00,
2013-11-21 08:22:00,62.0,-99.9,29.89,NE,51,2.0,3.0,-999,0.00,,,0.00,,2013-11-21 14:22:00,
2013-11-21 08:53:00,68.0,-99.9,29.90,SE,129,4.0,4.0,-999,0.00,,,0.00,,2013-11-21 14:53:00,
2013-11-21 09:22:00,72.0,-99.9,29.91,SSE,152,4.0,5.0,-999,0.00,,,0.00,,2013-11-21 15:22:00,
2013-11-21 10:53:00,77.0,-99.9,29.92,SSE,148,5.0,5.0,-999,0.00,,,0.00,,2013-11-21 16:53:00,
2013-11-21 11:22:00,76.0,-99.9,29.92,SW,224,5.0,12.0,-999,0.00,,,0.00,,2013-11-21 17:22:00,
2013-11-21 11:42:00,78.0,-99.9,29.92,South,188,7.0,9.0,-999,0.00,,,0.00,,2013-11-21 17:42:00,
2013-11-21 11:52:00,77.0,-99.9,29.91,SW,226,7.0,11.0,-999,0.00,,,0.00,,2013-11-21 17:52:00,
2013-11-21 12:22:00,76.0,-99.9,29.90,SSW,210,6.0,9.0,-999,0.00,,,0.00,,2013-11-21 18:22:00,
2013-11-21 12:52:00,77.0,-99.9,29.89,SSW,194,7.0,9.0,-999,0.00,,,0.00,,2013-11-21 18:52:00,
2013-11-21 13:22:00,81.0,-99.9,29.88,SW,228,7.0,7.0,-999,0.00,,,0.00,,2013-11-21 19:22:00,
2013-11-21 13:52:00,82.0,-99.9,29.87,SSW,201,6.0,12.0,-999,0.00,,,0.00,,2013-11-21 19:52:00,
2013-11-21 14:22:00,80.0,-99.9,29.86,WSW,239,8.0,9.0,-999,0.00,,,0.00,,2013-11-21 20:22:00,
2013-11-21 14:52:00,80.0,-99.9,29.85,SW,221,7.0,8.0,-999,0.00,,,0.00,,2013-11-21 20:52:00,
2013-11-21 15:22:00,80.0,-99.9,29.85,SW,222,4.0,4.0,-999,0.00,,,0.00,,2013-11-21 21:22:00,
2013-11-21 15:54:00,80.0,-99.9,29.85,SW,219,5.0,5.0,-999,0.00,,,0.00,,2013-11-21 21:54:00,
2013-11-21 16:23:00,79.0,-99.9,29.86,SSW,210,3.0,3.0,-999,0.00,,,0.00,,2013-11-21 22:23:00,
2013-11-21 16:53:00,79.0,-99.9,29.87,SW,231,2.0,2.0,-999,0.00,,,0.00,,2013-11-21 22:53:00,
2013-11-21 17:22:00,76.0,-99.9,29.87,SW,222,0.0,0.0,-999,0.00,,,0.00,,2013-11-21 23:22:00,
2013-11-21 17:53:00,75.0,-99.9,29.89,SW,222,0.0,0.0,-999,0.00,,,0.00,,2013-11-21 23:53:00,
2013-11-21 18:22:00,74.0,-99.9,29.90,SW,222,0.0,0.0,-999,0.00,,,0.00,,2013-11-22 00:22:00,
2013-11-21 18:52:00,71.0,-99.9,29.92,SW,222,0.0,0.0,-999,0.00,,,0.00,,2013-11-22 00:52:00,
2013-11-21 19:22:00,70.0,-99.9,29.93,SW,222,0.0,0.0,-999,0.00,,,0.00,,2013-11-22 01:22:00,
2013-11-21 19:52:00,69.0,-99.9,29.95,SW,222,0.0,0.0,-999,0.00,,,0.00,,2013-11-22 01:52:00,
2013-11-21 22:43:00,46.0,-99.9,30.13,North,1,19.0,21.0,-999,0.00,,,0.00,,2013-11-22 04:43:00,
2013-11-21 22:53:00,45.0,-99.9,30.14,NNE,27,15.0,18.0,-999,0.00,,,0.00,,2013-11-22 04:53:00,
2013-11-21 23:22:00,43.0,-99.9,30.17,NNW,333,18.0,18.0,-999,0.00,,,0.00,,2013-11-22 05:22:00,
2013-11-21 23:53:00,41.0,-99.9,30.19,North,356,12.0,13.0,-999,0.00,,,0.00,,2013-11-22 05:53:00,